"2010-01-23 00:00:00",1615960,8.95,315.3,5.982,1.303,9.88,102.8145,6.484,7.811,22.26,0,109.9,13.44,7.26,277.3
"2010-01-23 00:00:30",1615961,9.08,314.1,6.635,1.292,8.86,102.8145,6.484,7.732,22.19,0,109.9,13.44,7.26,276.1
"2010-01-23 00:01:00",1615962,9.33,315.9,7.03,1.32,9.49,102.8128,6.479,7.657,22.36,0,109.9,13.44,7.25,277.9
"2010-01-23 00:01:30",1615963,9.99,318.6,5.941,0.962,10.89,102.7953,6.435,7.788,22.73,0,109.9,13.44,7.21,280.6
"2010-01-23 00:02:00",1615964,10.42,318.2,4.724,1.192,10.44,102.7806,6.397,7.737,22.23,0,110,13.44,7.17,280.2
"2010-01-23 00:02:30",1615965,10.06,317.6,5.187,1.207,10.16,102.7806,6.397,7.691,22.18,0,109.9,13.44,7.17,279.6
"2010-01-23 00:03:00",1615966,10.33,315.3,6.524,1.085,9.81,102.7727,6.377,7.629,22.12,0,109.9,13.44,7.15,277.3
"2010-01-23 00:03:30",1615967,9.72,316.3,6.955,1.205,9.55,102.7495,6.318,7.58,21.97,0,109.9,13.45,7.09,278.3
"2010-01-23 00:04:00",1615968,10.12,313.1,5.929,1.358,9.12,102.7467,6.31,7.607,21.91,0,109.9,13.45,7.08,275.1
"2010-01-23 00:04:30",1615969,11.09,316.6,4.636,1.016,11.22,102.7458,6.308,7.657,21.1,0,109.9,13.45,7.08,278.6
"2010-01-23 00:05:00",1615970,10.98,315.3,5.905,1.105,10.33,102.7334,6.276,7.6,21,0,109.9,13.45,7.05,277.3
"2010-01-23 00:05:30",1615971,11.16,315.4,5.856,1.183,10.42,102.7139,6.227,7.584,20.92,0,109.9,13.45,7.00,277.4
"2010-01-23 00:06:00",1615972,11.83,313.7,4.847,0.958,10.88,102.7128,6.224,7.519,20.57,0,109.9,13.45,7.00,275.7
"2010-01-23 00:06:30",1615973,10.75,309.6,6.232,1.146,9.9,102.7128,6.224,7.539,20.31,0,109.9,13.45,7.00,271.6
"2010-01-23 00:07:00",1615974,11.53,315.9,5.485,1,10.76,102.7128,6.224,7.532,20.18,0,109.9,13.45,7.00,277.9
"2010-01-23 00:07:30",1615975,11.3,318.9,6.79,1.128,10.11,102.7111,6.219,7.514,20.58,0,109.9,13.45,6.99,280.9
"2010-01-23 00:08:00",1615976,11.21,320.4,6.8,1.207,10.37,102.6998,6.191,7.486,21.35,0,109.9,13.45,6.96,282.4
"2010-01-23 00:08:30",1615977,11.12,317.6,6.453,1.211,9.72,102.6825,6.146,7.455,21.29,0,109.9,13.45,6.92,279.6
"2010-01-23 00:09:00",1615978,11.15,320.1,6.136,1.2,10.95,102.6789,6.137,7.539,20.93,0,109.9,13.45,6.91,282.1
"2010-01-23 00:09:30",1615979,12.12,322.4,5,0.934,10.74,102.6789,6.137,7.502,21.29,0,109.9,13.45,6.91,284.4
"2010-01-23 00:10:00",1615980,11.74,319.2,6.258,1.165,9.66,102.6789,6.137,7.448,21.28,0,109.9,13.45,6.91,281.2
"2010-01-23 00:10:30",1615981,12.51,323.4,3.551,0.853,11.63,102.6789,6.137,7.502,21.04,0,109.9,13.45,6.91,285.4
"2010-01-23 00:11:00",1615982,13.06,322.5,4.002,0.643,11.62,102.6789,6.137,7.488,20.8,0,109.9,13.45,6.91,284.5
"2010-01-23 00:11:30",1615983,12.6,320.9,6.144,1.078,10.11,102.6789,6.137,7.377,20.67,0,109.9,13.45,6.91,282.9
"2010-01-23 00:12:00",1615984,12.07,318.4,6.387,1.239,10.05,102.6783,6.136,7.426,20.55,0,109.9,13.45,6.91,280.4
"2010-01-23 00:12:30",1615985,12.79,323.9,3.029,0.69,11.32,102.6718,6.119,7.498,20.56,0,109.9,13.45,6.89,285.9
"2010-01-23 00:13:00",1615986,12.74,322.1,5.694,0.984,10.73,102.6662,6.105,7.405,20.53,0,109.9,13.45,6.88,284.1
"2010-01-23 00:13:30",1615987,13.01,323.6,5.617,1.085,10.75,102.6608,6.091,7.412,20.55,0,109.9,13.45,6.86,285.6
"2010-01-23 00:14:00",1615988,13.76,326.5,3.165,0.804,11.56,102.6582,6.084,7.45,20.74,0,109.9,13.45,6.86,288.5
"2010-01-23 00:14:30",1615989,13.69,323.5,5.702,1.113,10.48,102.6503,6.064,7.386,21.13,0,109.9,13.45,6.84,285.5
"2010-01-23 00:15:30",1615990,13.62,325.3,4.758,1.081,10.73,102.6456,6.052,7.435,21.73,0,109.9,13.45,6.83,287.3
"2010-01-23 00:16:00",1615991,14.06,325.5,3.99,0.559,11.44,102.645,6.05,7.43,21.7,0,109.9,13.45,6.82,287.5
"2010-01-23 00:16:30",1615992,14.39,329.3,2.904,0.9,10.98,102.645,6.05,7.43,21.77,0,109.9,13.45,6.82,291.3
"2010-01-23 00:17:00",1615993,14.44,329.7,3.574,0.779,10.9,102.645,6.05,7.431,22.1,0,109.9,13.45,6.82,291.7
"2010-01-23 00:17:30",1615994,14.64,328.4,3.927,0.607,10.95,102.6453,6.051,7.43,22.17,0,109.9,13.45,6.82,290.4
"2010-01-23 00:18:00",1615995,14.54,328.8,2.98,0.772,10.9,102.6455,6.052,7.423,22.22,0,109.9,13.45,6.83,290.8
"2010-01-23 00:18:30",1615996,14.49,332.6,3.22,0.655,10.63,102.6447,6.05,7.396,22.48,0,109.9,13.45,6.82,294.6
"2010-01-23 00:19:00",1615997,14.62,330.9,4.004,0.582,10.66,102.6362,6.028,7.394,22.79,0,109.9,13.45,6.80,292.9
"2010-01-23 00:19:30",1615998,14.75,330,2.634,0.702,10.73,102.6207,5.989,7.378,22.94,0,109.9,13.45,6.76,292.0
"2010-01-23 00:20:00",1615999,15.16,329,3.575,0.759,10.86,102.6139,5.971,7.363,22.67,0,109.9,13.45,6.74,291.0
"2010-01-23 00:20:30",1616000,14.74,326.9,3.085,0.867,10.77,102.6145,5.973,7.34,22.47,0,109.9,13.45,6.75,288.9
"2010-01-23 00:21:00",1616001,14.71,325.4,3.465,0.631,11.24,102.6171,5.979,7.341,22.35,0,109.9,13.44,6.75,287.4
"2010-01-23 00:21:30",1616002,15.17,325.1,3.446,0.844,10.97,102.616,5.976,7.332,22.15,0,109.9,13.45,6.75,287.1
"2010-01-23 00:22:00",1616003,15.63,325.6,2.917,0.856,10.83,102.6084,5.957,7.322,22.31,0,109.9,13.45,6.73,287.6
"2010-01-23 00:22:30",1616004,15.42,325.5,3.624,0.777,10.94,102.594,5.92,7.312,22.48,0,109.9,13.45,6.69,287.5
"2010-01-23 00:23:00",1616005,15.38,326.9,3.182,0.641,10.97,102.5876,5.904,7.273,22.74,0,109.9,13.45,6.68,288.9
"2010-01-23 00:23:30",1616006,15.57,326.9,3.59,0.806,10.92,102.5887,5.907,7.276,23.02,0,109.9,13.45,6.68,288.9
"2010-01-23 00:24:00",1616007,15.11,328.6,3.702,0.851,10.96,102.5908,5.912,7.242,22.98,0,109.9,13.45,6.68,290.6
"2010-01-23 00:24:30",1616008,15.59,327.4,3.072,0.898,10.83,102.588,5.905,7.219,22.83,0,109.9,13.45,6.68,289.4
"2010-01-23 00:25:00",1616009,15.09,326.2,2.703,0.89,11.15,102.5637,5.843,7.206,22.55,0,109.9,13.45,6.62,288.2
"2010-01-23 00:25:30",1616010,16.06,327.1,2.015,0.85,10.71,102.5603,5.834,7.198,22.85,0,109.9,13.45,6.61,289.1
"2010-01-23 00:26:00",1616011,14.75,326.6,3.857,0.735,11.2,102.5647,5.845,7.214,22.76,0,109.9,13.45,6.62,288.6
"2010-01-23 00:26:30",1616012,15.52,326.1,3.348,1.046,10.89,102.5653,5.847,7.178,22.58,0,109.9,13.45,6.62,288.1
"2010-01-23 00:27:00",1616013,15.74,328.7,3.398,0.689,10.91,102.5658,5.848,7.156,23.09,0,109.9,13.45,6.62,290.7
"2010-01-23 00:27:30",1616014,15.37,327.9,4.056,0.735,10.77,102.5585,5.83,7.133,23.19,0,109.9,13.45,6.60,289.9
"2010-01-23 00:28:00",1616015,15.14,327.2,2.914,0.946,10.74,102.5391,5.78,7.145,23.27,0,109.9,13.45,6.55,289.2
"2010-01-23 00:28:30",1616016,15.01,328,4.511,1.401,10.74,102.5348,5.769,7.128,23.55,0,109.9,13.45,6.54,290.0
"2010-01-23 00:29:00",1616017,15.3,328.2,4.055,0.748,10.78,102.5377,5.776,7.122,24.3,0,109.9,13.45,6.55,290.2
"2010-01-23 00:29:30",1616018,15.03,329.3,3.579,0.872,10.36,102.5392,5.78,7.082,24.63,0,109.9,13.45,6.55,291.3
"2010-01-23 00:30:00",1616019,13.92,332.5,5.026,1.14,10.18,102.5199,5.731,7.082,25.09,0,109.9,13.45,6.50,294.5
"2010-01-23 00:30:30",1616020,13.63,330.4,4.678,0.686,10.19,102.5079,5.7,7.057,25.37,0,109.9,13.45,6.47,292.4
"2010-01-23 00:31:00",1616021,14.88,326.6,3.542,0.766,10.48,102.5084,5.702,7.035,25.17,0,109.9,13.45,6.47,288.6
"2010-01-23 00:31:30",1616022,13.56,333.6,5.926,1.463,10.07,102.4974,5.674,7.002,25.62,0,109.9,13.45,6.45,295.6
"2010-01-23 00:32:00",1616023,13.26,328,7.175,0.991,10.27,102.4765,5.62,6.987,25.8,0,109.9,13.46,6.39,290.0
"2010-01-23 00:32:30",1616024,14.34,331.5,5.892,0.952,10.16,102.4695,5.602,6.954,26.04,0,109.9,13.46,6.37,293.5
"2010-01-23 00:33:00",1616025,14.65,332.4,5.052,1.281,10.13,102.4409,5.529,6.916,25.6,0,109.9,13.46,6.30,294.4
"2010-01-23 00:33:30",1616026,12.94,337.5,4.604,1.283,9.88,102.4418,5.531,6.886,26,0,109.9,13.45,6.30,299.5
"2010-01-23 00:34:00",1616027,14.34,331.5,4.216,1.383,10.12,102.4251,5.489,6.85,25.57,0,109.9,13.45,6.26,293.5
"2010-01-23 00:34:30",1616028,13.97,333.5,3.927,1.207,9.94,102.4078,5.445,6.832,25.81,0,109.9,13.45,6.22,295.5
"2010-01-23 00:35:00",1616029,14.04,340.3,4.022,1.059,10.09,102.4013,5.428,6.79,26.24,0,109.9,13.45,6.20,302.3
"2010-01-23 00:35:30",1616030,13.37,333.2,6,1.286,10.06,102.375,5.361,6.753,26.14,0,109.9,13.45,6.13,295.2
"2010-01-23 00:36:00",1616031,12.96,338.6,5.158,1.02,9.8,102.3739,5.358,6.747,25.56,0,109.9,13.45,6.13,300.6
"2010-01-23 00:36:30",1616032,13.94,328.9,4.617,0.942,9.61,102.3507,5.299,6.696,26.67,0,109.9,13.45,6.07,290.9
"2010-01-23 00:37:00",1616033,14.49,330.3,3.295,1.288,10.16,102.3406,5.273,6.659,26.16,0,109.9,13.45,6.04,292.3
"2010-01-23 00:37:30",1616034,14.98,334.4,4.336,0.852,9.86,102.3383,5.267,6.628,25.91,0,109.9,13.45,6.04,296.4
"2010-01-23 00:38:00",1616035,14.03,337.5,4.528,1.087,9.71,102.3112,5.198,6.601,26.72,0,109.9,13.45,5.97,299.5
"2010-01-23 00:38:30",1616036,15.87,331.3,2.537,0.948,10.12,102.3064,5.186,6.57,26.33,0,109.9,13.46,5.96,293.3
"2010-01-23 00:39:00",1616037,15.9,332.5,3.242,1.013,10.24,102.3047,5.181,6.535,26.15,0,109.8,13.46,5.95,294.5
"2010-01-23 00:39:30",1616038,16.22,332.4,2.403,0.902,10.32,102.2798,5.118,6.511,25.67,0,109.8,13.46,5.89,294.4
"2010-01-23 00:40:00",1616039,15.65,330.5,3.941,0.972,10.42,102.2727,5.1,6.5,25.51,0,109.8,13.46,5.87,292.5
"2010-01-23 00:40:30",1616040,14.76,332,4.783,0.944,10.18,102.2727,5.1,6.46,26.34,0,109.8,13.46,5.87,294.0
"2010-01-23 00:41:00",1616041,14.13,333.6,5.294,1.134,10.32,102.2583,5.063,6.44,26.81,0,109.8,13.46,5.83,295.6
"2010-01-23 00:41:30",1616042,12.84,335.1,5.497,1.185,9.94,102.2391,5.014,6.408,27.06,0,109.8,13.46,5.78,297.1
"2010-01-23 00:42:00",1616043,16.16,328.8,3.687,0.828,10.52,102.2388,5.013,6.388,26.4,0,109.8,13.46,5.78,290.8
"2010-01-23 00:42:30",1616044,15.69,331.9,6.421,1.088,10.11,102.2331,4.999,6.353,25.79,0,109.8,13.46,5.77,293.9
"2010-01-23 00:43:00",1616045,16.45,331.4,5.134,0.831,10.52,102.2063,4.93,6.343,26.89,0,109.8,13.46,5.70,293.4
"2010-01-23 00:43:30",1616046,16.31,328.8,3.719,0.802,10.77,102.2049,4.926,6.318,25.33,0,109.8,13.46,5.70,290.8
"2010-01-23 00:44:00",1616047,16.12,328.9,4.067,1.12,10.35,102.2049,4.926,6.301,25.62,0,109.8,13.46,5.70,290.9
"2010-01-23 00:44:30",1616048,16.31,330.8,3.233,0.975,10.44,102.2049,4.926,6.262,26.08,0,109.8,13.46,5.70,292.8
"2010-01-23 00:45:00",1616049,17.12,330.2,1.759,0.755,10.71,102.1978,4.908,6.257,25.35,0,109.8,13.46,5.68,292.2
"2010-01-23 00:45:30",1616050,17.06,329.8,2.823,0.787,10.65,102.1775,4.856,6.226,24.89,0,109.8,13.46,5.63,291.8
"2010-01-23 00:46:00",1616051,16.96,330.8,2.863,0.871,10.55,102.171,4.84,6.219,24.88,0,109.8,13.46,5.61,292.8
"2010-01-23 00:46:30",1616052,17.01,330.8,3.09,0.859,10.65,102.171,4.84,6.215,24.83,0,109.8,13.46,5.61,292.8
"2010-01-23 00:47:00",1616053,17.47,329.5,2.634,0.723,10.74,102.171,4.84,6.192,24.73,0,109.8,13.46,5.61,291.5
"2010-01-23 00:47:30",1616054,17.6,328.5,2.766,0.889,10.61,102.171,4.84,6.17,25.25,0,109.8,13.46,5.61,290.5
"2010-01-23 00:48:00",1616055,18.06,327,3.061,1.001,10.83,102.171,4.84,6.177,24.6,0,109.8,13.46,5.61,289.0
"2010-01-23 00:48:30",1616056,17.32,331.8,4.331,0.834,10.65,102.171,4.84,6.169,25.32,0,109.8,13.46,5.61,293.8
"2010-01-23 00:49:00",1616057,17.71,329.2,3.248,0.787,10.85,102.171,4.84,6.167,25.25,0,109.8,13.46,5.61,291.2
"2010-01-23 00:49:30",1616058,17.35,328.9,2.798,0.837,10.57,102.171,4.84,6.15,25.34,0,109.8,13.46,5.61,290.9
"2010-01-23 00:50:00",1616059,17.24,325,3.594,0.85,11.03,102.171,4.84,6.157,25.02,0,109.8,13.46,5.61,287.0
"2010-01-23 00:50:30",1616060,15.6,327.5,3.249,1.233,10.29,102.1704,4.838,6.138,25.39,0,109.8,13.46,5.61,289.5
"2010-01-23 00:51:00",1616061,16.64,326.9,3.141,1.249,10.55,102.1662,4.827,6.123,26.07,0,109.8,13.46,5.60,288.9
"2010-01-23 00:51:30",1616062,18.12,327.8,3.326,1.064,10.63,102.1563,4.802,6.124,25.51,0,109.8,13.46,5.57,289.8
"2010-01-23 00:52:00",1616063,18.4,326.8,2.54,0.779,10.67,102.152,4.791,6.121,24.82,0,109.8,13.46,5.56,288.8
"2010-01-23 00:52:30",1616064,17.94,325.8,3.51,0.89,10.87,102.1498,4.786,6.115,24.7,0,109.8,13.46,5.55,287.8
"2010-01-23 00:53:00",1616065,18.03,327,3.604,0.787,10.83,102.1404,4.762,6.105,25.28,0,109.8,13.46,5.53,289.0
"2010-01-23 00:53:30",1616066,17.42,326.7,3.317,0.866,10.87,102.1373,4.754,6.114,25.13,0,109.8,13.46,5.52,288.7
"2010-01-23 00:54:00",1616067,16.42,324.9,3.348,0.982,11.24,102.137,4.753,6.099,24.3,0,109.8,13.46,5.52,286.9
"2010-01-23 00:54:30",1616068,17.33,325.7,3.147,1.136,10.43,102.137,4.753,6.099,25.16,0,109.8,13.46,5.52,287.7
"2010-01-23 00:55:00",1616069,17.47,325,3.067,0.884,10.62,102.137,4.753,6.073,25.82,0,109.8,13.46,5.52,287.0
"2010-01-23 00:55:30",1616070,17.6,325.7,2.893,0.91,10.72,102.137,4.753,6.064,25.23,0,109.8,13.46,5.52,287.7
"2010-01-23 00:56:00",1616071,17.3,325.2,4.102,0.729,10.95,102.137,4.753,6.097,24.88,0,109.8,13.47,5.52,287.2
"2010-01-23 00:56:30",1616072,16.91,326,2.735,0.893,10.73,102.1362,4.751,6.058,24.54,0,109.8,13.47,5.52,288.0
"2010-01-23 00:57:00",1616073,17.25,326.6,2.627,0.765,10.81,102.132,4.74,6.054,24.73,0,109.8,13.47,5.51,288.6
"2010-01-23 00:57:30",1616074,17.3,327.4,3.736,0.854,10.71,102.1272,4.728,6.055,24.83,0,109.8,13.47,5.50,289.4
"2010-01-23 00:58:00",1616075,16.45,328.9,3.442,1.104,10.42,102.1218,4.714,6.044,25.61,0,109.8,13.47,5.48,290.9
"2010-01-23 00:58:30",1616076,16.42,330.9,3.352,0.958,10.34,102.113,4.692,6.039,26.06,0,109.8,13.47,5.46,292.9
"2010-01-23 00:59:00",1616077,16.71,331.1,3.743,0.685,10.84,102.1045,4.67,6.032,25.8,0,109.8,13.47,5.44,293.1
"2010-01-23 00:59:30",1616078,16.5,327.7,3.571,0.781,10.81,102.1037,4.668,6.029,25.25,0,109.8,13.47,5.44,289.7
"2010-01-23 01:00:00",1616079,16.4,326.1,3.566,0.921,10.54,102.1054,4.672,6.037,25.06,0,109.8,13.47,5.44,288.1
"2010-01-23 01:00:30",1616080,15.86,326.5,4.536,1.084,10.03,102.1046,4.67,5.998,25.97,0,109.8,13.47,5.44,288.5
"2010-01-23 01:01:00",1616081,15.51,327.8,4.078,1.153,10.37,102.102,4.664,6.003,26.8,0,109.8,13.47,5.43,289.8
"2010-01-23 01:01:30",1616082,14.56,326.7,3.957,1.216,10.01,102.0913,4.636,5.972,26.84,0,109.8,13.47,5.40,288.7
"2010-01-23 01:02:00",1616083,16.15,326,3.136,0.839,10.38,102.0849,4.62,5.971,26.14,0,109.8,13.47,5.39,288.0
"2010-01-23 01:02:30",1616084,15.13,330.3,4.96,1.185,9.92,102.0764,4.598,5.943,26.26,0,109.8,13.47,5.37,292.3
"2010-01-23 01:03:00",1616085,15.82,325.8,3.846,0.557,10.62,102.079,4.605,5.932,26.45,0,109.8,13.47,5.37,287.8
"2010-01-23 01:03:30",1616086,15.85,326.7,3.618,0.868,10.23,102.0705,4.583,5.903,26.01,0,109.8,13.47,5.35,288.7
"2010-01-23 01:04:00",1616087,15.82,326.7,2.949,0.799,10.07,102.0533,4.539,5.914,25.98,0,109.8,13.47,5.31,288.7
"2010-01-23 01:04:30",1616088,15.97,326.9,2.596,0.859,10.22,102.0482,4.526,5.881,25.9,0,109.8,13.47,5.29,288.9
"2010-01-23 01:05:00",1616089,15.85,325.9,3,0.787,10.32,102.0488,4.528,5.883,25.94,0,109.8,13.47,5.30,287.9
"2010-01-23 01:05:30",1616090,15.58,325.6,3.211,0.856,10.2,102.05,4.531,5.856,25.88,0,109.8,13.47,5.30,287.6
"2010-01-23 01:06:00",1616091,15.48,326,2.812,0.911,10.16,102.0432,4.514,5.845,25.9,0,109.8,13.47,5.28,288.0
"2010-01-23 01:06:30",1616092,15.19,326.1,3.126,0.742,10.31,102.0288,4.477,5.83,25.96,0,109.8,13.47,5.24,288.1
"2010-01-23 01:07:00",1616093,15.19,325.7,3.459,0.716,10.27,102.0186,4.451,5.8,26.06,0,109.8,13.46,5.22,287.7
"2010-01-23 01:07:30",1616094,15.41,323,3.298,0.84,10.27,102.0172,4.447,5.787,25.98,0,109.8,13.47,5.21,285.0
"2010-01-23 01:08:00",1616095,15.09,323.9,3.812,0.767,10.14,102.0178,4.449,5.765,26,0,109.8,13.47,5.22,285.9
"2010-01-23 01:08:30",1616096,15.44,325.1,3.069,0.881,10.07,102.0175,4.448,5.76,26.1,0,109.8,13.46,5.22,287.1
"2010-01-23 01:09:00",1616097,15.56,325.7,2.138,0.781,10.13,102.0093,4.427,5.757,26.11,0,109.8,13.47,5.19,287.7
"2010-01-23 01:09:30",1616098,15.61,327,2.961,0.845,10.11,101.9995,4.402,5.745,26.12,0,109.8,13.47,5.17,289.0
"2010-01-23 01:10:00",1616099,15.36,327,2.808,0.882,10.08,101.9913,4.381,5.71,26.13,0,109.8,13.47,5.15,289.0
"2010-01-23 01:10:30",1616100,15.3,326.1,3.823,0.686,10.35,101.9914,4.381,5.724,26.16,0,109.8,13.47,5.15,288.1
"2010-01-23 01:11:00",1616101,15.6,327,3.611,0.657,10.26,101.9919,4.383,5.694,26.22,0,109.8,13.47,5.15,289.0
"2010-01-23 01:11:30",1616102,15.4,325.9,2.919,0.894,10.11,101.9911,4.38,5.689,26.21,0,109.8,13.47,5.15,287.9
"2010-01-23 01:12:00",1616103,14.92,323.3,3.956,0.769,10.28,101.9934,4.386,5.676,26.07,0,109.8,13.47,5.15,285.3
"2010-01-23 01:12:30",1616104,15.44,324.5,3.621,0.948,10.25,101.9877,4.372,5.684,26.15,0,109.8,13.47,5.14,286.5
"2010-01-23 01:13:00",1616105,15.5,324.9,3.842,0.765,10.32,101.9761,4.342,5.67,26.2,0,109.8,13.47,5.11,286.9
"2010-01-23 01:13:30",1616106,15.59,323.6,2.943,0.878,10.08,101.9699,4.326,5.663,26.09,0,109.8,13.47,5.09,285.6
"2010-01-23 01:14:00",1616107,15.34,323,3.062,0.907,10.01,101.966,4.316,5.661,26.09,0,109.8,13.47,5.08,285.0
"2010-01-23 01:14:30",1616108,15.67,321.5,3.857,0.858,10.08,101.96,4.301,5.631,25.98,0,109.8,13.47,5.07,283.5
"2010-01-23 01:15:00",1616109,15.3,323.6,3.346,0.777,10.11,101.9597,4.3,5.637,26.09,0,109.8,13.48,5.07,285.6
"2010-01-23 01:15:30",1616110,15.53,323.1,3.778,0.693,10.18,101.96,4.301,5.622,26.24,0,109.8,13.48,5.07,285.1
"2010-01-23 01:16:00",1616111,15.98,321.6,3.589,0.84,10.27,101.9606,4.303,5.604,26.11,0,109.8,13.48,5.07,283.6
"2010-01-23 01:16:30",1616112,16.02,320.2,2.891,0.899,10.23,101.9612,4.304,5.604,25.59,0,109.8,13.48,5.07,282.2
"2010-01-23 01:17:00",1616113,16.27,320.8,2.895,0.733,10.33,101.9618,4.306,5.609,25.61,0,109.8,13.48,5.07,282.8
"2010-01-23 01:17:30",1616114,15.92,320.2,2.975,0.829,10.25,101.9612,4.304,5.598,25.46,0,109.8,13.48,5.07,282.2
"2010-01-23 01:18:00",1616115,15.8,321.1,2.755,0.895,10.07,101.9618,4.306,5.587,25.67,0,109.8,13.48,5.07,283.1
"2010-01-23 01:18:30",1616116,15.65,321.3,2.879,0.873,10.09,101.9587,4.298,5.583,25.84,0,109.8,13.48,5.06,283.3
"2010-01-23 01:19:00",1616117,15.12,319.4,2.869,0.808,10.22,101.9556,4.29,5.589,25.86,0,109.8,13.48,5.06,281.4
"2010-01-23 01:19:30",1616118,15.03,320.2,3.124,0.812,10,101.9505,4.277,5.578,25.75,0,109.8,13.48,5.04,282.2
"2010-01-23 01:20:00",1616119,15.26,320.5,3.324,0.849,10.28,101.948,4.27,5.597,25.6,0,109.8,13.48,5.04,282.5
"2010-01-23 01:20:30",1616120,15.88,318.4,3.487,0.858,10.25,101.9454,4.264,5.571,25.16,0,109.8,13.48,5.03,280.4
"2010-01-23 01:21:00",1616121,16.46,319.4,2.825,0.654,10.5,101.9466,4.267,5.556,24.59,0,109.8,13.48,5.03,281.4
"2010-01-23 01:21:30",1616122,16.59,319.6,3.481,0.779,10.77,101.9542,4.286,5.572,23.88,0,109.8,13.48,5.05,281.6
"2010-01-23 01:22:00",1616123,15.68,319.7,3.307,0.878,10.25,101.965,4.314,5.584,24.39,0,109.8,13.48,5.08,281.7
"2010-01-23 01:22:30",1616124,15.33,318.6,3.466,0.839,10.14,101.9672,4.32,5.592,25.06,0,109.8,13.47,5.09,280.6
"2010-01-23 01:23:00",1616125,15.76,319,3.858,0.839,10.53,101.9675,4.32,5.579,25.01,0,109.8,13.47,5.09,281.0
"2010-01-23 01:23:30",1616126,15.83,318.6,3.365,0.89,10.25,101.9681,4.322,5.571,24.61,0,109.8,13.47,5.09,280.6
"2010-01-23 01:24:00",1616127,15.92,320.6,1.725,0.974,10.14,101.9678,4.321,5.588,24.61,0,109.8,13.47,5.09,282.6
"2010-01-23 01:24:30",1616128,16.22,320.5,3.662,0.854,10.25,101.9678,4.321,5.589,24.95,0,109.8,13.47,5.09,282.5
"2010-01-23 01:25:00",1616129,16,321.3,2.707,0.976,10.31,101.9678,4.321,5.625,24.95,0,109.8,13.47,5.09,283.3
"2010-01-23 01:25:30",1616130,16.17,319.8,3.648,0.723,10.47,101.9689,4.324,5.633,24.87,0,109.8,13.47,5.09,281.8
"2010-01-23 01:26:00",1616131,16.44,319.6,3.052,0.811,10.38,101.9692,4.325,5.608,24.7,0,109.8,13.47,5.09,281.6
"2010-01-23 01:26:30",1616132,16.36,318.6,3.841,0.835,10.4,101.9726,4.333,5.612,24.57,0,109.8,13.47,5.10,280.6
"2010-01-23 01:27:00",1616133,15.85,318.9,4.023,0.892,10.43,101.9754,4.341,5.641,24.45,0,109.8,13.48,5.11,280.9
"2010-01-23 01:27:30",1616134,16.5,320,2.313,0.837,10.31,101.9771,4.345,5.625,24.47,0,109.8,13.48,5.11,282.0
"2010-01-23 01:28:00",1616135,16.3,320,3.583,0.876,10.39,101.9859,4.367,5.645,24.26,0,109.8,13.48,5.13,282.0
"2010-01-23 01:28:30",1616136,16.12,320.1,2.959,0.855,10.27,101.9938,4.387,5.628,24.71,0,109.8,13.48,5.15,282.1
"2010-01-23 01:29:00",1616137,16.4,321,2.733,0.728,10.53,101.9989,4.4,5.637,24.47,0,109.8,13.48,5.17,283.0
"2010-01-23 01:29:30",1616138,16.14,321,3.094,0.824,10.34,102.002,4.408,5.66,24.49,0,109.8,13.48,5.18,283.0
"2010-01-23 01:30:00",1616139,15.61,320.7,2.792,0.847,10.29,102.002,4.408,5.677,24.48,0,109.8,13.49,5.18,282.7
"2010-01-23 01:30:30",1616140,14.95,319.3,3.368,0.806,9.97,102.002,4.408,5.654,24.97,0,109.8,13.49,5.18,281.3
"2010-01-23 01:31:00",1616141,14.25,320.2,2.2,0.927,9.97,102.002,4.408,5.654,25.49,0,109.8,13.49,5.18,282.2
"2010-01-23 01:31:30",1616142,14.32,319.8,3.499,1.008,10.04,102.002,4.408,5.67,25.63,0,109.8,13.49,5.18,281.8
"2010-01-23 01:32:00",1616143,14.71,319.4,3.652,0.907,10.2,102.002,4.408,5.68,25.16,0,109.8,13.49,5.18,281.4
"2010-01-23 01:32:30",1616144,15.19,320.1,3.554,0.763,10.32,102.002,4.408,5.673,24.65,0,109.8,13.49,5.18,282.1
"2010-01-23 01:33:00",1616145,14.79,319.7,3.529,0.913,10.1,102.002,4.408,5.671,24.62,0,109.8,13.49,5.18,281.7
"2010-01-23 01:33:30",1616146,14.41,319.8,4.18,0.883,9.96,102.0012,4.406,5.691,25.13,0,109.8,13.49,5.17,281.8
"2010-01-23 01:34:00",1616147,14.62,320.5,3.707,0.958,9.9,101.9967,4.395,5.64,25.2,0,109.8,13.49,5.16,282.5
"2010-01-23 01:34:30",1616148,14.82,322.1,3.33,0.746,10.02,101.9876,4.372,5.664,25.04,0,109.8,13.49,5.14,284.1
"2010-01-23 01:35:00",1616149,14.54,321.3,2.864,0.787,10.09,101.9783,4.348,5.655,25.07,0,109.8,13.49,5.12,283.3
"2010-01-23 01:35:30",1616150,14.06,320,3.475,0.808,9.75,101.976,4.342,5.639,25.21,0,109.8,13.49,5.11,282.0
"2010-01-23 01:36:00",1616151,13.7,321.2,4.15,0.646,9.93,101.9701,4.327,5.671,25.52,0,109.8,13.49,5.09,283.2
"2010-01-23 01:36:30",1616152,13.21,321.3,3.768,0.832,9.78,101.9681,4.322,5.639,25.65,0,109.8,13.49,5.09,283.3
"2010-01-23 01:37:00",1616153,13.55,317.2,2.532,0.726,9.73,101.9681,4.322,5.624,25.36,0,109.8,13.49,5.09,279.2
"2010-01-23 01:37:30",1616154,13.14,319.9,3.303,0.873,9.59,101.9681,4.322,5.625,25.21,0,109.8,13.49,5.09,281.9
"2010-01-23 01:38:00",1616155,12.67,319.2,3.757,0.804,9.63,101.9681,4.322,5.642,25.25,0,109.8,13.49,5.09,281.2
"2010-01-23 01:38:30",1616156,12.73,321.4,3.46,0.813,9.46,101.9681,4.322,5.621,25.57,0,109.8,13.48,5.09,283.4
"2010-01-23 01:39:00",1616157,12.55,319.8,3.248,0.727,9.48,101.9579,4.296,5.603,25.7,0,109.8,13.48,5.06,281.8
"2010-01-23 01:39:30",1616158,12.68,318.7,3.395,0.902,9.29,101.9376,4.244,5.612,25.83,0,109.8,13.48,5.01,280.7
"2010-01-23 01:40:00",1616159,12.6,319.6,3.172,0.861,9.29,101.9342,4.235,5.603,25.69,0,109.8,13.48,5.00,281.6
"2010-01-23 01:40:30",1616160,12.34,321.2,2.962,0.91,9.26,101.9342,4.235,5.58,25.81,0,109.8,13.48,5.00,283.2
"2010-01-23 01:41:00",1616161,11.99,320.5,2.313,0.732,9.32,101.9342,4.235,5.558,25.84,0,109.8,13.48,5.00,282.5
"2010-01-23 01:41:30",1616162,11.41,320.3,3.284,0.854,9.13,101.9319,4.229,5.557,25.89,0,109.8,13.48,5.00,282.3
"2010-01-23 01:42:00",1616163,11.67,322,3.261,0.903,8.96,101.9192,4.197,5.538,26.05,0,109.8,13.48,4.96,284.0
"2010-01-23 01:42:30",1616164,11.26,321.4,3.046,0.94,8.95,101.905,4.161,5.533,26.2,0,109.8,13.48,4.93,283.4
"2010-01-23 01:43:00",1616165,11.22,319.8,4.148,0.6,9.27,101.9002,4.148,5.514,26.13,0,109.8,13.48,4.91,281.8
"2010-01-23 01:43:30",1616166,11.53,315.9,3.283,0.843,8.91,101.9002,4.148,5.513,25.98,0,109.8,13.49,4.91,277.9
"2010-01-23 01:44:00",1616167,10.89,319.6,4.293,0.78,8.91,101.8983,4.143,5.475,26.07,0,109.8,13.49,4.91,281.6
"2010-01-23 01:44:30",1616168,11.39,319.3,3.896,1.047,8.93,101.8793,4.095,5.48,26.17,0,109.8,13.49,4.86,281.3
"2010-01-23 01:45:00",1616169,11.9,319.2,3.661,0.949,8.97,101.8666,4.063,5.471,26.15,0,109.8,13.49,4.83,281.2
"2010-01-23 01:45:30",1616170,11.47,318.7,4.965,0.729,9.01,101.8663,4.062,5.467,26.29,0,109.8,13.49,4.83,280.7
"2010-01-23 01:46:00",1616171,11.38,319.4,4.292,0.846,8.97,101.8663,4.062,5.448,26.17,0,109.8,13.49,4.83,281.4
"2010-01-23 01:46:30",1616172,11.72,316.4,4.217,0.824,9.04,101.8655,4.06,5.412,25.9,0,109.8,13.49,4.83,278.4
"2010-01-23 01:47:00",1616173,11.69,318.8,3.702,0.832,9.09,101.8485,4.016,5.386,25.91,0,109.8,13.49,4.78,280.8
"2010-01-23 01:47:30",1616174,11.67,322.1,2.816,0.945,8.8,101.8338,3.979,5.389,25.89,0,109.8,13.49,4.74,284.1
"2010-01-23 01:48:00",1616175,11.45,318.8,3.57,0.774,9.04,101.8327,3.976,5.368,25.9,0,109.8,13.49,4.74,280.8
"2010-01-23 01:48:30",1616176,10.94,321.8,3.938,0.822,8.79,101.8324,3.975,5.347,26.04,0,109.8,13.49,4.74,283.8